Location: Tierra Monte Subdivision
(35.2092°N, 106.4864°W)
Time: 21:32:08
(UTC+00:00)

IRS-1A Rocket - Pass Details

Date: 30 March 2020
Orbit: 851 x 931 km, 99.2° (Epoch: 05 June)

Event Time Altitude Azimuth Distance (km) Brightness Sun altitude
Rises 02:33:30 0° 162° (SSE) 3,432 7.0 -14.5°
Reaches altitude 10° 02:35:51 10° 162° (SSE) 2,507 6.3 -14.9°
Maximum altitude 02:41:25 83° 75° (ENE) 894 4.2 -16.0°
Drops below altitude 10° 02:47:10 10° 348° (NNW) 2,575 7.1 -17.1°
Sets 02:49:36 0° 348° (NNW) 3,531 7.9 -17.6°
